Medicine Lodge, KS

3:25 PM CST on December 08, 2019 (GMT -0600)
Medicine Lodge

Weather History for KP28 - October, 2019

Change the Weather History Date:

Sunday, October 6, 2019

  Actual Average Record
Temperature  
Mean Temperature 58 °F 63 °F  
Max Temperature 71 °F 75 °F 99 °F (1928)
Min Temperature 45 °F 50 °F 34 °F (1991)
Degree Days  
Heating Degree Days 7 5  
Month to date heating degree days 25 25  
Since 1 July heating degree days 25 59  
Cooling Degree Days 0 2  
Month to date cooling degree days 20 17  
Year to date cooling degree days 1834 1748  
Growing Degree Days 9 (Base 50)    
Moisture  
Dew Point 44 °F    
Average Humidity 63    
Maximum Humidity 93    
Minimum Humidity 32    
Precipitation  
Precipitation 0.00 in 0.09 in 3.57 in (1946)
Month to date precipitation 1.61 0.52  
Year to date precipitation 30.19 22.97  
Snow  
Snow 0.00 in 0.00 in - ()
Month to date snowfall 0.0 0.0  
Since 1 July snowfall 0.0 0.0  
Since 1 September snowfall 0.0 0.0  
Snow Depth 0.00 in    
Sea Level Pressure  
Sea Level Pressure 30.17 in    
Wind  
Wind Speed 9 mph (NNE)    
Max Wind Speed 24 mph    
Max Gust Speed 33 mph    
T = Trace of Precipitation, MM = Missing Value Source: NWS Daily Summary

Daily Weather History Graph

Daily Weather History Graph

Search for Another Location

Airport or City:

Astronomy

Oct. 06, 2019 Rise Set
Actual Time 7:33 AM CDT 7:10 PM CDT
Civil Twilight 7:07 AM CDT 7:36 PM CDT
Nautical Twilight 6:37 AM CDT 8:06 PM CDT
Astronomical Twilight 6:07 AM CDT 8:36 PM CDT
Moon 3:40 PM CDT (10/6) 12:43 AM CDT (10/6)
Length of Visible Light 12h 28m
Length of Day
11h 36m
First Quarter, 60% of the Moon is Illuminated
Oct 6
First Quarter
Oct 13
Full
Oct 21
Last Quarter
Oct 27
New
Nov 4
First Quarter

Hourly Weather History & Observations

Time (CDT) Temp. Windchill Dew Point Humidity Pressure Visibility Wind Dir Wind Speed Gust Speed Precip Events Conditions
12:56 AM 55.0 °F - 46.9 °F 74% 30.03 in - Calm Calm - N/A   Unknown
1:56 AM 54.0 °F - 46.0 °F 75% 30.03 in - East 4.6 mph - N/A   Unknown
2:56 AM 50.0 °F - 46.9 °F 89% 30.04 in - North 3.5 mph - N/A   Unknown
3:56 AM 48.0 °F - 46.0 °F 93% 30.03 in - North 4.6 mph - N/A   Unknown
4:56 AM 50.0 °F - 48.0 °F 93% 30.04 in - North 3.5 mph - N/A   Unknown
5:56 AM 53.1 °F - 51.1 °F 93% 30.06 in - Calm Calm - N/A   Unknown
6:56 AM 55.0 °F - 50.0 °F 83% 30.08 in - NE 3.5 mph - N/A   Unknown
7:56 AM 55.0 °F - 48.9 °F 80% 30.12 in - NNE 4.6 mph - N/A   Unknown
8:56 AM 57.0 °F - 48.0 °F 72% 30.14 in - NNE 6.9 mph - N/A   Unknown
9:56 AM 60.1 °F - 46.9 °F 62% 30.15 in - NE 11.5 mph - N/A   Unknown
10:56 AM 62.1 °F - 45.0 °F 53% 30.17 in - ENE 12.7 mph 21.9 mph N/A   Unknown
11:56 AM 64.0 °F - 44.1 °F 48% 30.19 in - NE 13.8 mph - N/A   Unknown
12:56 PM 64.9 °F - 42.1 °F 43% 30.19 in - NE 11.5 mph 19.6 mph N/A   Unknown
1:56 PM 69.1 °F - 42.1 °F 38% 30.19 in - NNE 19.6 mph 26.5 mph N/A   Unknown
2:56 PM 68.0 °F - 41.0 °F 37% 30.19 in - NNE 17.3 mph 26.5 mph N/A   Unknown
3:56 PM 70.0 °F - 39.9 °F 33% 30.20 in - North 23.0 mph 32.2 mph N/A   Unknown
4:56 PM 69.1 °F - 39.9 °F 35% 30.21 in - North 18.4 mph 29.9 mph N/A   Unknown
5:56 PM 68.0 °F - 37.9 °F 33% 30.21 in - NNE 18.4 mph 26.5 mph N/A   Unknown
6:56 PM 63.0 °F - 42.1 °F 46% 30.22 in - NNE 6.9 mph - N/A   Unknown
7:56 PM 59.0 °F - 42.1 °F 53% 30.26 in - NNE 10.4 mph - N/A   Unknown
8:56 PM 55.0 °F - 42.1 °F 62% 30.30 in - NE 8.1 mph - N/A   Unknown
9:56 PM 50.0 °F - 43.0 °F 77% 30.32 in - North 4.6 mph - N/A   Unknown
10:56 PM 48.0 °F - 44.1 °F 86% 30.34 in - North 4.6 mph - N/A   Unknown
11:56 PM 46.0 °F 43.9 °F 43.0 °F 89% 30.34 in - North 4.6 mph - N/A   Unknown